EN

Hourly Weather Labody

Today, 3 August, Tuesday

Time Temperature Precipitation Wind Pressure Humidity
00:00 +13°C° 0 mm 3 mps 737 mmHg 96%
01:00 +12°C° 0 mm 3 mps 737 mmHg 95%
02:00 +12°C° 0 mm 3 mps 737 mmHg 95%
03:00 +12°C° 0 mm 3 mps 737 mmHg 94%
04:00 +11°C° 0 mm 3 mps 737 mmHg 94%
05:00 +11°C° 0 mm 3 mps 738 mmHg 94%
06:00 +13°C° 0 mm 3 mps 738 mmHg 88%
07:00 +14°C° 0 mm 4 mps 738 mmHg 82%
08:00 +17°C° 0 mm 4 mps 738 mmHg 77%
09:00 +17°C° 0 mm 5 mps 739 mmHg 69%
10:00 +19°C° 0 mm 5 mps 739 mmHg 61%
11:00 +20°C° 0 mm 6 mps 739 mmHg 54%
12:00 +21°C° 0 mm 6 mps 739 mmHg 51%
13:00 +21°C° 0 mm 6 mps 739 mmHg 49%
14:00 +22°C° 0 mm 6 mps 739 mmHg 46%
15:00 +22°C° 0 mm 6 mps 739 mmHg 48%
16:00 +22°C° 0 mm 5 mps 739 mmHg 50%
17:00 +21°C° 0 mm 5 mps 739 mmHg 51%
18:00 +20°C° 0 mm 4 mps 740 mmHg 60%
19:00 +18°C° 0 mm 4 mps 740 mmHg 69%
20:00 +16°C° 0 mm 3 mps 740 mmHg 79%
21:00 +14°C° 0 mm 3 mps 740 mmHg 82%
22:00 +13°C° 0 mm 3 mps 741 mmHg 85%
23:00 +14°C° 0 mm 2 mps 741 mmHg 89%

Tomorrow, 4 August, Wednesday

Time Temperature Precipitation Wind Pressure Humidity
00:00 +13°C° 0 mm 2 mps 741 mmHg 90%
01:00 +13°C° 0 mm 2 mps 741 mmHg 91%
02:00 +13°C° 0 mm 2 mps 741 mmHg 92%
03:00 +13°C° 0 mm 2 mps 742 mmHg 91%
04:00 +12°C° 0 mm 2 mps 742 mmHg 91%
05:00 +12°C° 0 mm 2 mps 742 mmHg 91%
06:00 +14°C° 0 mm 2 mps 742 mmHg 83%
07:00 +16°C° 0 mm 2 mps 742 mmHg 76%
08:00 +17°C° 0 mm 2 mps 742 mmHg 69%
09:00 +18°C° 0 mm 2 mps 742 mmHg 70%
10:00 +18°C° 0 mm 2 mps 743 mmHg 71%
11:00 +18°C° 0 mm 2 mps 743 mmHg 72%
12:00 +19°C° 0 mm 2 mps 742 mmHg 64%
13:00 +21°C° 0 mm 3 mps 742 mmHg 56%
14:00 +24°C° 0 mm 3 mps 742 mmHg 48%
15:00 +22°C° 0.9 mm 3 mps 742 mmHg 56%
16:00 +21°C° 0.9 mm 3 mps 741 mmHg 64%
17:00 +20°C° 0.9 mm 3 mps 741 mmHg 71%
18:00 +19°C° 2.4 mm 3 mps 741 mmHg 79%
19:00 +17°C° 2.4 mm 3 mps 741 mmHg 86%
20:00 +16°C° 2.4 mm 2 mps 741 mmHg 94%
21:00 +15°C° 3.1 mm 2 mps 741 mmHg 95%
22:00 +14°C° 3.1 mm 3 mps 741 mmHg 96%
23:00 +14°C° 3.1 mm 3 mps 740 mmHg 98%

Day after tomorrow, 5 August, Thursday

Time Temperature Precipitation Wind Pressure Humidity
00:00 +14°C° 1.1 mm 3 mps 740 mmHg 98%
01:00 +16°C° 1.1 mm 2 mps 740 mmHg 97%
02:00 +16°C° 1.1 mm 2 mps 740 mmHg 97%
03:00 +15°C° 0.2 mm 2 mps 739 mmHg 97%
04:00 +15°C° 0.2 mm 1 mps 739 mmHg 97%
05:00 +15°C° 0.2 mm 1 mps 739 mmHg 97%
06:00 +16°C° 0 mm 1 mps 739 mmHg 94%
07:00 +18°C° 0 mm 1 mps 739 mmHg 91%
08:00 +18°C° 0 mm 1 mps 739 mmHg 87%
09:00 +19°C° 0 mm 1 mps 739 mmHg 83%
10:00 +20°C° 0 mm 1 mps 739 mmHg 78%
11:00 +21°C° 0 mm 1 mps 739 mmHg 73%
12:00 +21°C° 0 mm 1 mps 739 mmHg 70%
13:00 +22°C° 0 mm 1 mps 739 mmHg 67%
14:00 +23°C° 0 mm 2 mps 739 mmHg 65%
15:00 +21°C° 0 mm 2 mps 739 mmHg 65%
16:00 +21°C° 0 mm 2 mps 739 mmHg 66%
17:00 +21°C° 0 mm 2 mps 738 mmHg 67%
18:00 +20°C° 0 mm 3 mps 738 mmHg 72%
19:00 +19°C° 0 mm 3 mps 738 mmHg 77%
20:00 +17°C° 0 mm 4 mps 738 mmHg 82%
21:00 +15°C° 0 mm 4 mps 738 mmHg 84%
22:00 +15°C° 0 mm 4 mps 737 mmHg 86%
23:00 +14°C° 0 mm 4 mps 737 mmHg 89%

6 August, Friday

Time Temperature Precipitation Wind Pressure Humidity
00:00 +14°C° 0 mm 4 mps 737 mmHg 91%
01:00 +14°C° 0 mm 4 mps 736 mmHg 93%
02:00 +14°C° 0 mm 4 mps 736 mmHg 94%
03:00 +14°C° 0 mm 5 mps 735 mmHg 95%
04:00 +14°C° 0 mm 5 mps 735 mmHg 95%
05:00 +14°C° 0 mm 6 mps 734 mmHg 95%
06:00 +14°C° 0.9 mm 6 mps 734 mmHg 96%
07:00 +15°C° 0.9 mm 7 mps 733 mmHg 96%
08:00 +15°C° 0.9 mm 7 mps 732 mmHg 97%
09:00 +16°C° 0.4 mm 7 mps 732 mmHg 95%
10:00 +17°C° 0.4 mm 6 mps 732 mmHg 93%
11:00 +20°C° 0.4 mm 6 mps 732 mmHg 92%
12:00 +21°C° 0.3 mm 6 mps 732 mmHg 85%
13:00 +22°C° 0.3 mm 7 mps 732 mmHg 79%
14:00 +23°C° 0.3 mm 7 mps 732 mmHg 73%
15:00 +23°C° 0.5 mm 7 mps 732 mmHg 76%
16:00 +22°C° 0.5 mm 6 mps 732 mmHg 79%
17:00 +21°C° 0.5 mm 6 mps 732 mmHg 81%
18:00 +20°C° 0.2 mm 5 mps 732 mmHg 86%
19:00 +19°C° 0.2 mm 4 mps 732 mmHg 90%
20:00 +17°C° 0.2 mm 4 mps 733 mmHg 95%
21:00 +17°C° 0 mm 4 mps 733 mmHg 95%
22:00 +15°C° 0 mm 4 mps 733 mmHg 95%
23:00 +14°C° 0 mm 4 mps 734 mmHg 95%

7 August, Saturday

Time Temperature Precipitation Wind Pressure Humidity
00:00 +14°C° 0 mm 3 mps 734 mmHg 95%
01:00 +14°C° 0 mm 3 mps 734 mmHg 94%
02:00 +13°C° 0 mm 3 mps 735 mmHg 94%
03:00 +13°C° 0 mm 3 mps 735 mmHg 94%
04:00 +13°C° 0 mm 3 mps 735 mmHg 95%
05:00 +13°C° 0 mm 3 mps 735 mmHg 95%
06:00 +14°C° 0 mm 3 mps 736 mmHg 91%
07:00 +15°C° 0 mm 4 mps 736 mmHg 88%
08:00 +15°C° 0 mm 4 mps 736 mmHg 84%
09:00 +17°C° 0 mm 4 mps 737 mmHg 76%
10:00 +19°C° 0 mm 4 mps 737 mmHg 68%
11:00 +20°C° 0 mm 4 mps 737 mmHg 60%
12:00 +21°C° 0 mm 4 mps 738 mmHg 57%
13:00 +22°C° 0 mm 5 mps 738 mmHg 55%
14:00 +22°C° 0 mm 5 mps 738 mmHg 52%
15:00 +22°C° 0 mm 5 mps 738 mmHg 54%
16:00 +22°C° 0 mm 4 mps 738 mmHg 56%
17:00 +22°C° 0 mm 4 mps 738 mmHg 58%
18:00 +20°C° 0 mm 3 mps 739 mmHg 65%
19:00 +19°C° 0 mm 3 mps 739 mmHg 72%
20:00 +17°C° 0 mm 2 mps 739 mmHg 78%
21:00 +17°C° 0 mm 2 mps 740 mmHg 81%
22:00 +16°C° 0 mm 2 mps 740 mmHg 83%
23:00 +15°C° 0 mm 2 mps 740 mmHg 85%

8 August, Sunday

Time Temperature Precipitation Wind Pressure Humidity
00:00 +15°C° 0 mm 2 mps 741 mmHg 85%
01:00 +15°C° 0 mm 2 mps 741 mmHg 86%
02:00 +14°C° 0 mm 2 mps 741 mmHg 86%
03:00 +14°C° 0 mm 2 mps 741 mmHg 87%
04:00 +14°C° 0 mm 2 mps 741 mmHg 87%
05:00 +14°C° 0 mm 1 mps 741 mmHg 88%
06:00 +16°C° 0 mm 2 mps 742 mmHg 81%
07:00 +18°C° 0 mm 2 mps 742 mmHg 75%
08:00 +20°C° 0 mm 2 mps 742 mmHg 68%
09:00 +21°C° 0 mm 3 mps 742 mmHg 63%
10:00 +22°C° 0 mm 3 mps 742 mmHg 58%
11:00 +25°C° 0 mm 3 mps 742 mmHg 53%
12:00 +25°C° 0 mm 4 mps 742 mmHg 51%
13:00 +26°C° 0 mm 4 mps 742 mmHg 49%
14:00 +27°C° 0 mm 4 mps 742 mmHg 47%
15:00 +27°C° 0 mm 4 mps 742 mmHg 49%
16:00 +27°C° 0 mm 4 mps 741 mmHg 52%
17:00 +26°C° 0 mm 4 mps 741 mmHg 54%
18:00 +25°C° 0 mm 4 mps 741 mmHg 59%
19:00 +22°C° 0 mm 4 mps 741 mmHg 64%
20:00 +21°C° 0 mm 4 mps 740 mmHg 69%
21:00 +20°C° 0.1 mm 4 mps 741 mmHg 74%
22:00 +20°C° 0.1 mm 4 mps 741 mmHg 79%
23:00 +19°C° 0.1 mm 4 mps 741 mmHg 84%
Show more